Hourly Data Report for July 24, 2021

FLIN FLON
MANITOBA
Current Station Operator: ECCC - MSC

54°41'00.000" N
101°41'00.000" W
303.90 m
5050919
71954
WFO

Download Data

Hourly Data (July 2021)
Hourly Data Report for July 24, 2021
TIME
LST
Temp Definition
°C
Dew Point Definition
°C
Rel Hum Definition
%
Precip. Amount Definition
mm

Wind Dir Definition
10's deg

Wind Spd Definition
km/h
Visibility Definition
km
Stn Press Definition
kPa
Hmdx Definition


Wind Chill Definition


Weather Definition


00:00 16.5 11.1 71 0.0 27 15   96.92     LegendNANA
01:00 16.4 11.4 73 0.0 27 14   96.91     LegendNANA
02:00 15.8 11.6 76 0.0 27 11   96.90     LegendNANA
03:00 15.2 12.0 81 0.0 26 14   96.91     LegendNANA
04:00 15.0 12.5 85 0.0 26 13   96.91     LegendNANA
05:00 14.8 12.7 87 0.0 27 13   96.91     LegendNANA
06:00 15.3 12.8 85 0.0 27 13   96.94     LegendNANA
07:00 16.7 13.0 79 0.0 28 17   96.96     LegendNANA
08:00 18.1 13.1 73 0.0 29 17   96.99     LegendNANA
09:00 18.8 13.2 70 0.0 29 17   97.06     LegendNANA
10:00 19.4 13.3 68 0.0 31 16   97.09     LegendNANA
11:00 20.1 13.4 65 0.0 30 15   97.12     LegendNANA
12:00 20.7 13.3 63 0.0 29 13   97.13     LegendNANA
13:00 21.3 13.0 59 0.0 30 16   97.13     LegendNANA
14:00 23.1 13.4 54 0.0 30 17   97.10 26   LegendNANA
15:00 23.9 12.6 49 0.0 29 17   97.09 26   LegendNANA
16:00 23.4 12.1 49 0.0 32 20   97.10 26   LegendNANA
17:00 21.7 16.0 70 0.4 28 8   97.08 26   LegendNANA
18:00 22.5 13.8 58 0.0 32 11   97.05 26   LegendNANA
19:00 20.3 15.6 74 0.7 35 9   97.06 25   LegendNANA
20:00 20.7 14.3 67 0.0 28 5   97.02     LegendNANA
21:00 15.5 13.9 90 2.2 29 10   97.23     LegendNANA
22:00 14.7 13.4 92 0.7 27 5   97.21     LegendNANA
23:00 14.4 13.3 93 0.0 28 11   97.23     LegendNANA

Notes on Data Quality.

Legend

  • E = Estimated
  • M = Missing
  • NA = Not Available*
  • [empty] = Indicates an unobserved value
Date modified: